Tucson Davis Monthan, AZ

8:31 PM MST on June 24, 2018 (GMT -0700)
Davis-Monthan Air Force Base

Weather History for KDMA - December, 2017

Change the Weather History Date:

Thursday, December 21, 2017

  Actual Average Record
Temperature  
Mean Temperature 44 °F -  
Max Temperature 54 °F 62 °F 78 °F (1950)
Min Temperature 31 °F 38 °F 22 °F (1949)
Degree Days  
Heating Degree Days 22    
Moisture  
Dew Point 21 °F    
Average Humidity 38    
Maximum Humidity 55    
Minimum Humidity 20    
Precipitation  
Precipitation 0.00 in - - ()
Sea Level Pressure  
Sea Level Pressure 29.94 in    
Wind  
Wind Speed 9 mph (WNW)    
Max Wind Speed 21 mph    
Max Gust Speed 28 mph    
Visibility 10 miles    
Events      
Averages and records for this station are not official NWS values.
T = Trace of Precipitation, MM = Missing Value Source: NWS Daily Summary

Daily Weather History Graph

Daily Weather History Graph

Search for Another Location

Airport or City:

Astronomy

Dec. 21, 2017 Rise Set
Actual Time 7:20 AM MST 5:23 PM MST
Civil Twilight 6:53 AM MST 5:50 PM MST
Nautical Twilight 6:22 AM MST 6:20 PM MST
Astronomical Twilight 5:52 AM MST 6:50 PM MST
Moon 9:45 AM MST (12/21) 8:34 PM MST (12/21)
Length of Visible Light 10h 56m
Length of Day
10h 02m
Waxing Crescent, 11% of the Moon is Illuminated
Dec 21
Waxing Crescent
Dec 26
First Quarter
Jan 1
Full
Jan 8
Last Quarter
Jan 16
New

Hourly Weather History & Observations

Time (MST) Temp. Windchill Dew Point Humidity Pressure Visibility Wind Dir Wind Speed Gust Speed Precip Events Conditions
12:58 AM 49.8 °F - 32.0 °F 50% 29.85 in 10.0 mi ESE 6.9 mph - N/A   Clear
1:58 AM 50.0 °F - 31.1 °F 48% 29.83 in 10.0 mi East 6.9 mph - N/A   Clear
2:58 AM 48.7 °F - 30.4 °F 49% 29.86 in 10.0 mi NNW 4.6 mph - N/A   Clear
3:58 AM 47.3 °F - 30.6 °F 52% 29.83 in 10.0 mi South 4.6 mph - N/A   Clear
4:58 AM 47.5 °F - 30.2 °F 51% 29.85 in 10.0 mi SW 9.2 mph - N/A   Clear
5:58 AM 48.4 °F - 32.0 °F 53% 29.88 in 10.0 mi NW 11.5 mph 21.9 mph N/A   Clear
6:58 AM 45.5 °F 40.8 °F 29.3 °F 53% 29.91 in 10.0 mi NW 9.2 mph - N/A   Clear
7:58 AM 45.0 °F 41.2 °F 27.9 °F 51% 29.93 in 10.0 mi WNW 6.9 mph - N/A   Clear
8:56 AM 46.6 °F - 31.3 °F 55% 29.95 in 10.0 mi West 5.8 mph - N/A   Clear
9:56 AM 49.5 °F - 30.0 °F 47% 29.96 in 10.0 mi NW 18.4 mph - N/A   Clear
10:56 AM 50.4 °F - 25.7 °F 38% 29.96 in 10.0 mi NW 10.4 mph - N/A   Clear
11:56 AM 51.8 °F - 25.0 °F 35% 29.94 in 10.0 mi WNW 9.2 mph - N/A   Clear
12:56 PM 52.2 °F - 23.2 °F 32% 29.91 in 10.0 mi West 11.5 mph - N/A   Overcast
1:31 PM 53.6 °F - 15.8 °F 22% 29.90 in 10.0 mi NW 13.8 mph - N/A   Scattered Clouds
1:56 PM 54.5 °F - 15.3 °F 21% 29.89 in 10.0 mi NW 16.1 mph - N/A   Clear
2:58 PM 53.1 °F - 13.1 °F 20% 29.90 in 10.0 mi WNW 18.4 mph 25.3 mph N/A   Clear
3:58 PM 50.9 °F - 15.4 °F 24% 29.91 in 10.0 mi NW 20.7 mph 27.6 mph N/A   Clear
4:58 PM 47.8 °F - 12.7 °F 24% 29.93 in 10.0 mi NW 19.6 mph 25.3 mph N/A   Clear
5:58 PM 44.8 °F 38.7 °F 9.1 °F 23% 29.98 in 10.0 mi WNW 12.7 mph - N/A   Clear
6:58 PM 42.8 °F 38.6 °F 12.7 °F 30% 30.01 in 10.0 mi WNW 6.9 mph - N/A   Clear
7:58 PM 41.5 °F 35.9 °F 12.4 °F 31% 30.04 in 10.0 mi WNW 9.2 mph - N/A   Clear
8:58 PM 40.3 °F 34.9 °F 9.7 °F 28% 30.07 in 10.0 mi WNW 8.1 mph - N/A   Clear
9:58 PM 37.6 °F 33.1 °F 9.7 °F 32% 30.08 in 10.0 mi WNW 5.8 mph - N/A   Clear
10:58 PM 33.8 °F 28.6 °F 9.7 °F 37% 30.10 in 10.0 mi SW 5.8 mph - N/A   Clear
11:58 PM 31.5 °F 28.1 °F 13.1 °F 47% 30.12 in 10.0 mi SE 3.5 mph - N/A   Clear